EW4283 Weather Reports


time (UTC)temp
C
wind
direction
speed
KPH
gust
KPH
rain 1hr
cm
rain 24hr
cm
rain mn
cm
humidity
%
barometer
mb
20260505214524 10 77 17.7 33.8 0.00 0.00 0.00 73 1008.4
20260505213027 10 51 17.7 37.0 0.00 0.00 0.00 73 1009.0
20260505211521 11 49 17.7 29.0 0.00 0.00 0.00 71 1008.6
20260505210018 11 39 11.3 29.0 0.00 0.00 0.00 74 1008.2
20260505204516 11 28 17.7 32.2 0.00 0.00 0.00 74 1008.3
20260505203026 11 31 22.5 35.4 0.00 0.00 0.00 73 1008.1
20260505201614 11 30 16.1 32.2 0.00 0.00 0.00 74 1008.0
20260505200014 11 70 16.1 33.8 0.00 0.00 0.00 74 1008.1
20260505194513 11 60 20.9 33.8 0.00 0.00 0.00 74 1008.3
20260505193012 11 42 16.1 35.4 0.00 0.00 0.00 75 1008.3
20260505191508 11 52 19.3 37.0 0.00 0.00 0.00 75 1008.0
20260505190006 11 48 19.3 37.0 0.00 0.00 0.00 75 1007.8
20260505184505 11 34 19.3 46.7 0.00 0.00 0.00 75 1007.6
20260505183003 11 27 17.7 32.2 0.00 0.00 0.00 75 1007.3
20260505181600 11 75 20.9 38.6 0.00 0.00 0.00 76 1007.2
20260505180059 11 61 12.9 32.2 0.00 0.00 0.00 79 1007.2
20260505174556 11 40 17.7 30.6 0.00 0.00 0.00 80 1007.1
20260505173058 11 64 9.7 24.1 0.00 0.00 0.00 81 1006.6
20260505171559 11 44 17.7 32.2 0.00 0.00 0.00 81 1006.6
20260505170048 12 64 8.0 30.6 0.00 0.00 0.00 82 1006.3
20260505164545 12 3 22.5 35.4 0.00 0.00 0.00 80 1006.0
20260505163044 12 54 24.1 35.4 0.00 0.00 0.00 80 1005.5
20260505161543 12 56 16.1 29.0 0.00 0.00 0.00 81 1004.9
20260505153032 12 44 17.7 38.6 0.00 0.00 0.00 83 1004.3
20260505151534 12 41 25.7 41.8 0.00 0.00 0.00 84 1004.2
20260505124558 18 273 3.2 11.3 0.00 0.00 0.00 84 1001.2
20260505123054 17 229 4.8 11.3 0.00 0.00 0.00 84 1000.7
20260505121554 18 55 6.4 14.5 0.00 0.00 0.00 84 1000.4
20260505120109 18 54 6.4 16.1 0.00 0.00 0.00 84 1000.6
20260505114551 17 218 1.6 11.3 0.00 0.00 0.00 84 1000.2
20260505113050 17 50 4.8 14.5 0.00 0.00 0.00 85 1000.4
20260505111548 17 68 6.4 20.9 0.00 0.00 0.00 85 1000.1
20260505101542 17 64 11.3 22.5 0.00 0.00 0.00 85 999.7
20260505100037 17 56 8.0 16.1 0.00 0.00 0.00 86 999.5
20260505094533 18 47 0.0 6.4 0.00 0.00 0.00 86 998.7
20260505093035 18 87 0.0 9.7 0.00 0.00 0.00 86 998.3
20260505091531 18 125 1.6 9.7 0.00 0.00 0.00 85 998.4
20260505090040 18 177 1.6 11.3 0.00 0.00 0.00 85 998.3
20260505084529 18 106 3.2 12.9 0.00 0.00 0.00 85 998.5
20260505083027 18 207 1.6 11.3 0.00 0.00 0.00 84 998.6
20260505081525 18 136 1.6 8.0 0.00 0.00 0.00 85 998.7
20260505080023 18 159 3.2 9.7 0.00 0.00 0.00 85 998.9
20260505074521 18 74 0.0 4.8 0.00 0.00 0.00 84 999.0
20260505073029 18 115 1.6 6.4 0.00 0.00 0.00 84 999.1
20260505071519 19 231 1.6 9.7 0.00 0.00 0.00 82 999.3
20260505070013 19 212 0.0 3.2 0.00 0.00 0.00 81 999.5
20260505064530 20 98 0.0 6.4 0.00 0.00 0.00 80 999.7
20260505063008 20 207 4.8 9.7 0.00 0.00 0.00 79 999.8
20260505061512 20 111 0.0 8.0 0.00 0.00 0.00 77 1000.0
20260505060001 21 67 3.2 9.7 0.00 0.00 0.00 75 1000.0
20260505054627 21 206 11.3 30.6 0.00 0.00 0.00 74 999.2
20260505053107 22 203 17.7 32.2 0.00 0.00 0.00 74 998.9
20260505051553 22 206 16.1 30.6 0.00 0.00 0.00 73 999.0
20260505041555 22 192 17.7 30.6 0.00 0.00 0.00 73 999.2
20260505040044 22 187 14.5 27.4 0.00 0.00 0.00 73 999.4
20260505034542 22 188 14.5 25.7 0.00 0.00 0.00 72 999.6
20260505033042 22 174 14.5 25.7 0.00 0.00 0.00 71 999.7
20260505031551 22 220 11.3 20.9 0.00 0.00 0.00 71 999.7
20260505030039 22 172 11.3 19.3 0.00 0.00 0.00 70 999.9
20260505024541 22 179 12.9 20.9 0.00 0.00 0.00 71 999.8
20260505023038 22 176 8.0 16.1 0.00 0.00 0.00 71 999.9
20260505021538 22 147 8.0 16.1 0.00 0.00 0.00 71 999.9
20260505020036 22 225 9.7 17.7 0.00 0.00 0.00 70 1000.0
20260505014538 22 172 9.7 17.7 0.00 0.00 0.00 69 999.9
20260505013035 22 133 9.7 17.7 0.00 0.00 0.00 68 1000.0
20260505011535 23 184 12.9 19.3 0.00 0.00 0.00 67 999.8
20260505010032 23 167 6.4 14.5 0.00 0.00 0.00 67 1000.0
20260505004544 23 188 8.0 16.1 0.00 0.00 0.00 65 1000.0
20260505003031 24 171 8.0 17.7 0.00 0.00 0.00 64 1000.0
20260505001530 24 187 11.3 19.3 0.00 0.00 0.00 63 1000.1
20260505000044 25 203 11.3 24.1 0.00 0.00 0.00 61 1000.1
20260504234526 25 197 12.9 25.7 0.00 0.00 0.00 60 1000.3
20260504233025 25 210 16.1 27.4 0.00 0.00 0.00 59 1000.5
20260504231524 25 214 12.9 27.4 0.00 0.00 0.00 58 1000.6
20260504230022 25 214 16.1 27.4 0.00 0.00 0.00 57 1000.9
20260504224521 26 201 19.3 32.2 0.00 0.00 0.00 56 1001.0
20260504223021 26 262 16.1 22.5 0.00 0.00 0.00 56 1001.0
20260504221520 26 179 14.5 35.4 0.00 0.00 0.00 55 1000.9
20260504220019 26 207 20.9 30.6 0.00 0.00 0.00 54 1001.1